Regional Weather Roundup
Issued by NWS Sioux Falls, SD

Home | Current Version | Previous Version | Text Only | Print | Product List | Glossary On
Versions: 1 2 3 4 5 6 7 8 9 10 11 12 13 14 15 16 17 18 19 20 21 22 23 24 25 26 27 28 29 30 31 32 33 34 35 36 37 38 39 40 41 42 43 44 45 46 47 48 49 50
000
ASUS43 KFSD 152310
RWRFSD

WEATHER ROUNDUP FOR SE SOUTH DAKOTA/SW MINNESOTA/NW IOWA
NATIONAL WEATHER SERVICE SIOUX FALLS SD
500 PM CST FRI DEC 15 2017

NOTE: "FAIR" INDICATES FEW OR NO CLOUDS BELOW 12,000 FEET WITH NO
SIGNIFICANT WEATHER AND OR OBSTRUCTIONS TO VISIBILITY.


SDZ038>040-050-052>070-160000-
SOUTHEAST SOUTH DAKOTA

CITY           SKY/WX    TMP DP  RH WIND       PRES   REMARKS
BROOKINGS      CLOUDY    37  26  64 S8        29.67F
CHAMBERLAIN    CLOUDY    46  33  62 SW6       29.66F
HURON          CLOUDY    40  27  59 S8        29.65S
MADISON        CLOUDY    36  27  69 S9        29.68S
MITCHELL       CLOUDY    43  28  55 SW7       29.68S
SIOUX FALLS    CLOUDY    37  26  64 S9        29.70F
WINNER         FAIR      45  30  55 SW12      29.69F
YANKTON        CLOUDY    45  25  45 SW13      29.71F
$$

MNZ071-072-080-081-089-090-097-098-160000-
SOUTHWEST MINNESOTA

CITY           SKY/WX    TMP DP  RH WIND       PRES   REMARKS
FAIRMONT       CLOUDY    37  26  64 SW6       29.75F
JACKSON        CLOUDY    37  27  65 SW7       29.73F
LUVERNE        CLOUDY    36  25  64 SW7       29.72F
MARSHALL       CLOUDY    37  28  70 S7        29.69F
MONTEVIDEO     CLOUDY    36  28  75 CALM      29.69S
PIPESTONE      CLOUDY    36  25  64 SW7       29.68F
REDWOOD FALLS  CLOUDY    37  30  75 S5        29.71F
TRACY          CLOUDY    37  30  75 SW8       29.69F
WINDOM           N/A     37  21  52 S6        29.72F
WORTHINGTON    CLOUDY    38  25  59 SW10      29.72F
$$

IAZ001>003-012>014-020>022-031-032-NEZ013-014-SDZ071-160000-
NORTHWEST IOWA

CITY           SKY/WX    TMP DP  RH WIND       PRES   REMARKS
CHEROKEE       CLOUDY    40  23  50 SW8       29.77S
DENISON        CLEAR     43  25  49 SW9G17    29.80S
ESTHERVILLE    CLOUDY    38  25  59 SW10      29.74F
LE MARS        CLOUDY    37  25  60 S6        29.75F
ORANGE CITY    CLOUDY    39  27  60 S7        29.74F
SHELDON        CLOUDY    39  25  56 SW8       29.72F
SIOUX CITY     PTCLDY    43  25  49 SW7       29.77F
SPENCER        CLOUDY    40  25  55 SW8       29.75F
STORM LAKE     CLOUDY    41  23  48 SW9       29.76F
$$

ABBREVIATIONS USED IN REMARKS
   TC - TEMPERATURE IN CELSIUS
  WCI - WIND CHILL INDEX
   HX - HEAT INDEX
  VSB - VISIBILITY





USA.gov is the U.S. government's official web portal to all federal, state and local government web resources and services.